Wind_Speed
37 38 39 39 38 37 35 35 36 37 38 38 37 36 38 40 40 41 41 41 42 43 44 45 45 46 47 46 46 46 46 46 45 45 45 44 44 45 46 47 46 46 46 46 48 48 48 47 47 48 49 49 49 49 48 45 43 40 37 32 28 25 24 25 25 25 22 18 14 12 12 13 13 12 11 8 7 6 7 8 9 10 11 10 9 12
38 39 40 40 39 37 36 35 36 37 38 37 36 36 38 40 40 41 41 41 42 43 43 44 45 47 47 46 46 45 45 46 46 46 45 44 44 43 44 45 45 46 46 46 46 47 47 47 47 46 46 46 47 48 48 47 46 43 40 35 31 26 24 24 24 25 25 22 18 15 14 14 13 13 12 9 7 6 7 8 8 8 9 9 9 12
39 40 41 41 40 38 36 36 36 37 38 38 37 37 38 39 40 40 41 41 42 42 42 43 44 46 47 47 46 45 44 44 45 45 45 44 44 44 43 43 43 44 46 46 47 47 47 47 46 46 45 44 43 44 45 46 46 43 40 37 32 28 25 23 22 24 26 26 22 18 16 14 13 13 12 11 8 7 7 8 8 7 8 9 10 13
40 41 42 43 41 39 38 37 38 38 39 39 38 38 39 39 40 40 40 42 42 41 41 42 43 46 47 47 46 45 44 43 44 45 45 45 45 45 44 43 43 43 44 45 46 47 47 46 46 45 44 43 42 41 41 42 43 41 39 37 33 30 26 24 21 21 23 26 26 22 18 16 14 13 13 12 10 8 8 9 9 9 9 10 12 13
41 42 43 43 42 41 40 39 39 39 40 40 40 40 40 40 40 40 41 42 42 41 41 41 43 45 46 45 45 44 43 43 43 44 44 44 44 44 44 44 43 43 44 44 45 46 47 47 46 45 44 43 42 40 39 39 40 40 39 37 35 31 28 26 23 21 20 23 26 26 21 19 17 16 14 13 11 9 9 9 10 10 9 10 11 13
40 41 41 42 42 41 41 40 38 38 37 37 38 39 38 38 38 39 40 41 41 40 40 41 43 45 45 44 43 43 43 43 43 43 44 44 43 43 43 44 44 44 44 44 44 45 45 46 46 45 43 42 42 41 39 38 39 40 39 38 35 31 29 28 25 22 21 21 23 26 25 22 20 19 16 14 11 10 9 9 9 9 8 8 9 10
37 38 38 38 39 39 38 36 35 34 33 33 34 34 33 33 34 35 37 37 37 37 37 39 41 43 42 41 42 42 43 43 43 43 43 43 43 43 43 43 44 44 45 45 45 45 45 45 45 45 43 42 41 41 40 39 38 39 39 37 33 29 28 26 24 22 21 21 22 25 27 25 22 21 18 14 12 10 9 9 9 8 7 7 7 8
33 34 34 33 34 34 34 32 32 31 31 30 31 30 30 30 30 32 33 33 32 32 32 36 38 39 38 37 38 40 41 42 42 42 42 42 43 43 43 43 44 45 45 45 45 46 45 45 44 44 43 43 41 41 41 39 37 38 37 34 32 27 25 23 21 21 20 20 21 24 27 26 23 22 19 16 13 11 9 9 8 7 7 6 5 7
30 30 29 30 31 31 31 30 30 29 29 29 29 28 28 28 28 29 29 27 27 26 28 32 34 33 33 32 33 35 37 38 39 39 40 41 42 43 43 43 44 45 45 45 46 46 46 45 44 43 43 43 42 42 41 39 37 36 36 34 30 26 24 23 22 23 19 16 17 22 25 25 23 21 18 16 14 12 10 8 7 7 6 6 4 5
27 27 27 28 29 29 29 28 27 27 27 28 27 26 26 25 24 26 24 22 21 22 24 28 28 27 27 27 28 30 31 32 33 34 36 37 39 41 42 43 44 45 46 46 46 46 46 45 44 43 42 42 43 43 41 39 37 36 36 36 32 28 26 25 24 23 18 12 13 19 23 24 22 18 16 15 14 13 11 8 8 7 6 5 4 4
25 25 26 27 27 26 26 25 25 24 25 25 25 23 22 21 20 21 19 18 18 19 20 22 23 23 22 21 23 24 25 26 28 29 31 33 35 38 40 41 42 43 45 45 45 45 45 45 44 43 42 42 43 44 42 40 39 37 38 39 37 34 32 28 23 21 17 11 12 16 19 19 18 17 15 14 14 14 12 10 9 8 7 6 4 4
23 23 24 25 25 24 24 23 23 23 23 23 22 21 20 18 17 17 16 16 17 16 17 18 19 19 18 18 19 19 20 22 24 26 27 29 31 33 36 38 40 40 41 42 43 44 44 45 44 43 42 42 43 44 43 41 40 39 40 43 42 39 38 35 27 22 19 14 13 15 15 15 16 16 16 15 15 14 12 11 10 9 8 7 5 5
21 22 23 23 23 23 23 22 22 22 22 21 20 19 19 17 16 16 16 16 15 15 16 16 16 16 16 18 17 17 17 19 21 22 24 26 28 29 31 33 35 36 37 37 39 41 42 43 44 44 43 43 43 44 43 42 42 41 42 46 47 44 42 40 33 27 23 19 15 15 16 16 16 16 15 15 15 15 13 12 12 9 9 8 7 7
20 21 21 21 20 21 22 21 21 22 22 20 20 19 18 16 16 16 16 16 14 14 14 14 14 14 16 17 17 16 17 18 19 20 22 24 26 26 27 28 30 31 32 33 33 36 38 40 42 43 44 44 44 44 43 43 43 43 43 46 49 49 46 43 38 33 30 25 17 15 17 19 18 16 15 14 15 15 16 16 14 10 9 9 9 10
20 21 20 19 19 19 20 20 21 22 22 21 21 20 17 15 15 15 16 15 13 13 13 13 13 14 15 16 17 18 18 19 20 21 22 24 25 25 25 25 27 28 28 29 29 30 33 37 40 42 43 44 45 45 44 44 44 45 45 45 47 50 49 47 43 38 34 30 23 17 18 20 20 18 16 17 17 18 19 19 16 13 12 10 10 12
20 21 19 18 18 19 19 19 20 21 21 22 22 21 17 14 13 14 15 15 14 13 12 11 11 12 14 16 18 19 20 21 22 22 22 23 24 24 24 24 25 25 25 25 25 26 28 32 35 39 41 43 44 45 45 44 45 45 45 45 46 48 49 49 48 44 39 35 29 22 20 22 22 21 21 21 21 22 21 18 16 15 15 15 13 12
20 20 20 19 19 19 19 19 20 20 21 22 22 20 17 14 13 13 14 15 14 13 11 9 9 11 13 15 17 18 18 19 20 20 20 21 22 23 24 23 23 23 23 22 23 23 24 26 29 33 37 41 43 44 45 45 45 45 45 46 46 47 47 48 49 47 44 42 36 28 25 25 24 24 25 26 27 27 24 19 18 17 17 17 16 14
18 19 19 20 20 20 18 18 19 19 20 21 20 20 17 14 13 13 14 15 14 12 10 7 8 11 12 12 14 14 15 16 17 17 17 18 19 21 22 21 21 22 22 21 21 21 21 22 24 27 31 36 40 43 45 45 45 44 45 46 47 47 46 46 46 47 47 46 43 36 31 29 26 25 27 29 30 29 26 24 24 22 19 17 16 16
15 17 18 19 21 20 18 17 18 19 19 19 19 19 17 14 14 14 14 14 14 11 8 6 8 11 11 10 11 12 13 14 14 14 14 15 16 17 18 18 19 19 20 19 18 17 18 19 20 23 26 31 36 40 43 45 45 45 45 46 46 46 45 45 45 46 47 46 44 39 34 31 29 27 28 31 31 29 28 27 26 25 21 18 16 16
15 16 16 19 21 20 17 17 17 17 18 18 18 18 16 15 15 15 14 14 13 11 8 6 8 10 10 10 12 12 12 12 13 14 14 14 13 13 14 15 15 16 16 15 14 14 14 16 17 19 22 27 32 37 41 44 45 45 45 45 45 44 43 43 43 43 44 43 41 37 35 34 31 28 27 28 29 30 30 28 25 24 22 18 16 17
16 17 16 18 19 18 17 16 15 16 17 17 18 18 17 17 16 16 15 14 13 11 8 7 8 8 9 11 12 11 10 11 12 12 12 12 12 11 10 11 12 12 12 12 11 11 11 11 13 15 18 21 26 32 37 42 44 45 45 44 43 43 42 42 41 41 41 40 38 36 36 36 33 29 27 27 28 30 31 28 25 23 23 21 20 19
17 18 17 17 18 18 18 16 15 16 17 17 18 19 18 18 17 16 15 13 13 12 10 9 8 7 8 10 10 8 8 9 10 10 9 9 10 11 9 9 10 9 9 9 9 7 6 7 8 9 12 16 21 27 33 38 42 42 42 42 41 41 41 41 41 40 40 39 38 37 36 35 35 32 29 29 30 32 32 29 25 24 24 24 22 21
19 19 19 18 18 19 19 16 15 16 17 17 19 20 19 18 17 17 15 14 15 15 13 12 11 8 8 10 9 7 7 8 8 7 6 6 9 10 9 8 8 8 7 9 8 6 6 8 7 7 9 12 17 22 27 33 36 38 38 39 39 39 40 40 40 40 39 39 38 37 35 33 35 35 31 30 30 31 33 31 27 25 25 23 21 20
21 21 21 19 18 20 21 18 15 16 17 18 20 20 20 19 19 18 17 17 17 17 16 15 13 11 9 10 9 7 7 8 7 5 4 4 7 9 8 7 8 8 8 10 9 9 9 10 10 10 9 10 14 18 22 26 30 33 34 35 36 37 37 37 38 37 37 37 36 35 32 30 32 35 33 30 29 30 33 34 29 26 24 22 19 18
23 22 22 20 18 20 22 21 18 17 17 19 20 20 21 21 20 19 18 19 19 18 18 17 14 12 10 10 10 9 8 8 6 4 3 4 6 7 8 7 8 8 9 11 12 12 11 11 12 12 10 10 12 15 18 22 25 27 29 30 32 33 34 34 35 35 35 35 34 33 30 28 29 33 33 31 29 31 35 36 30 25 23 22 19 19
25 23 23 21 19 18 21 22 20 18 18 19 19 20 22 22 22 20 19 20 20 20 18 16 14 11 9 9 10 10 9 8 6 4 3 5 6 7 7 7 8 9 10 12 14 15 13 12 12 13 12 11 11 13 17 20 21 23 24 26 27 29 31 32 32 33 33 34 34 31 28 27 29 31 31 30 29 31 34 35 31 25 22 21 21 21
28 26 25 23 20 18 19 20 20 20 20 20 20 21 23 23 22 21 20 21 21 21 19 15 13 12 10 9 11 12 10 9 8 6 4 5 8 7 7 7 8 9 10 13 17 18 16 14 14 14 14 13 12 13 17 20 21 21 22 23 24 25 27 28 29 30 31 33 34 31 27 28 30 32 32 29 29 31 32 33 31 27 22 21 21 21
32 29 28 26 22 19 18 18 20 22 22 22 22 23 24 24 23 22 22 22 22 22 19 15 14 14 12 11 12 12 11 10 8 7 6 7 10 9 8 8 9 10 11 13 18 21 19 17 16 15 14 15 14 14 16 20 22 23 23 23 24 24 24 26 26 28 29 31 33 31 28 29 32 33 33 32 31 29 28 28 30 29 25 22 21 21
33 32 31 29 25 21 19 18 20 23 24 23 24 24 25 25 25 24 23 23 23 23 21 17 15 16 16 14 13 13 13 12 8 6 6 8 10 11 10 10 11 11 12 12 16 20 22 20 19 18 16 15 15 15 17 19 22 24 25 25 25 25 25 26 26 27 27 28 31 32 30 30 32 32 33 36 34 29 26 27 30 31 28 24 23 24
33 34 33 31 28 24 20 19 19 21 23 24 24 24 24 24 25 24 23 23 24 24 23 19 16 18 19 17 15 15 15 14 10 5 5 8 10 10 9 11 12 13 13 14 15 17 21 23 22 20 19 18 17 16 17 18 20 23 24 25 26 27 27 27 27 27 27 28 30 32 33 33 34 35 34 34 34 32 29 29 31 33 31 28 28 29
33 34 35 34 31 26 22 20 19 20 22 24 25 24 24 23 23 22 20 22 24 24 23 20 18 20 21 20 18 17 16 15 13 8 6 8 10 9 8 9 13 14 14 15 16 16 18 22 24 23 21 20 19 18 18 18 19 21 23 24 25 26 28 28 28 27 27 28 29 31 35 36 36 37 37 34 34 34 31 30 33 34 32 30 31 32
32 35 35 36 34 29 25 22 20 19 21 24 25 25 23 22 21 20 19 19 22 23 22 21 20 22 23 23 21 19 17 15 15 12 9 9 10 9 9 8 11 14 15 15 16 17 17 20 23 25 25 23 21 20 20 19 20 21 22 23 22 23 25 26 26 25 26 28 29 30 34 38 38 39 39 39 38 37 35 35 37 37 36 34 33 32
30 34 35 35 35 33 29 25 22 20 21 24 26 25 23 21 20 19 19 19 20 21 22 22 23 23 24 24 24 22 18 15 16 15 12 11 11 10 9 8 8 12 15 14 14 15 17 19 21 23 25 25 23 22 22 22 22 22 23 23 23 23 23 23 23 23 23 26 29 30 31 36 40 42 42 42 43 43 41 41 40 40 40 37 34 32
28 33 35 35 35 35 32 28 25 22 22 24 26 25 23 22 22 22 21 21 21 22 22 23 24 23 23 25 25 25 21 16 16 18 15 13 13 11 10 9 7 9 13 15 15 15 16 18 20 21 22 24 25 24 23 23 23 24 23 24 24 25 25 23 22 22 23 24 27 30 31 34 41 46 46 44 45 46 45 44 40 39 38 37 35 35
26 31 35 36 36 36 33 30 27 26 26 28 27 25 24 24 24 24 23 22 22 23 23 24 25 24 24 25 26 27 23 17 16 18 17 15 15 14 11 9 9 9 10 13 15 16 16 17 19 20 21 22 24 25 25 25 24 25 25 25 24 25 27 27 24 23 24 25 26 29 33 35 40 45 47 46 46 47 48 47 44 41 40 40 39 39
26 29 33 35 37 37 35 32 29 29 32 33 29 26 26 26 26 25 23 22 22 23 25 26 26 25 25 25 26 28 25 19 16 18 19 17 16 15 13 11 10 10 10 10 13 16 17 17 17 18 20 20 21 23 25 27 27 27 27 26 25 25 26 29 29 27 26 27 27 27 31 35 39 43 47 49 49 50 51 50 49 46 43 43 42 41
26 27 30 34 37 38 38 35 31 31 35 37 33 30 30 29 29 27 25 24 24 25 26 27 26 26 25 24 25 28 27 22 17 17 19 19 17 16 15 13 12 11 11 10 10 13 15 17 16 16 17 19 20 21 23 25 27 28 28 28 27 27 26 28 31 31 30 29 27 26 27 30 34 39 43 48 51 53 54 54 52 50 46 45 44 44
25 26 28 31 34 38 39 38 35 33 35 38 38 35 32 31 31 30 29 28 28 28 28 28 27 26 25 24 25 27 28 25 19 16 17 19 19 17 17 16 14 12 12 12 11 10 12 15 16 15 16 16 17 18 19 22 25 27 28 28 28 28 28 28 30 32 34 33 31 28 26 26 28 30 34 40 46 51 53 54 53 52 49 46 45 45
25 26 27 29 31 36 39 39 37 36 36 38 40 38 35 33 33 33 32 31 30 30 29 28 27 26 26 25 25 26 27 27 23 19 17 19 20 19 19 19 17 14 13 13 12 11 11 13 16 16 16 15 15 16 16 18 21 23 24 26 26 26 27 28 29 31 33 35 35 33 31 29 27 27 29 32 37 42 47 50 52 53 52 50 47 45
26 26 27 28 29 34 38 39 39 39 38 39 39 38 36 35 35 35 34 32 31 31 30 29 29 28 27 27 26 26 28 28 27 25 21 20 22 22 21 20 19 17 15 14 13 11 10 11 14 16 17 17 15 15 15 15 16 18 20 22 23 23 23 25 27 28 30 32 34 35 35 33 31 30 30 30 32 35 39 44 47 50 52 53 53 50
27 27 27 28 29 31 34 37 40 41 41 42 41 40 39 38 37 37 35 32 32 33 33 33 32 31 30 29 27 27 29 29 30 30 26 22 22 24 22 21 21 19 17 15 14 12 11 10 10 12 15 16 15 15 15 14 14 15 17 19 20 21 21 21 22 25 26 28 30 32 34 34 33 33 32 32 33 34 35 38 42 45 47 50 52 53
30 29 29 30 31 31 32 34 37 39 41 43 45 46 46 45 43 40 37 35 35 35 36 36 36 35 34 32 30 29 30 30 32 33 31 26 24 24 24 23 22 21 19 18 16 14 13 11 9 9 11 12 12 13 14 13 13 15 16 18 19 19 20 20 20 22 24 25 27 29 31 33 34 34 34 34 34 34 35 36 38 40 43 46 48 51
32 32 32 32 32 32 32 34 35 36 37 41 45 47 49 49 47 44 43 42 41 40 39 39 39 38 37 36 34 32 31 31 32 34 35 31 28 26 25 24 24 22 22 20 18 16 15 14 12 11 11 10 10 11 12 11 11 13 15 16 17 18 19 20 21 22 23 24 25 27 28 30 32 33 34 34 34 35 36 36 36 37 39 41 44 47
33 33 34 34 35 35 34 34 35 36 37 39 42 44 45 46 45 44 43 43 44 44 44 44 43 42 40 39 37 36 34 33 33 34 36 35 33 31 28 26 25 24 23 22 21 19 18 16 15 14 13 13 12 12 11 10 9 10 12 12 13 15 17 20 22 23 24 25 26 27 28 29 31 32 33 34 35 35 36 37 37 37 37 38 40 42
36 35 35 36 36 37 37 36 36 37 38 39 40 42 43 43 43 41 40 40 41 42 44 45 46 46 45 43 42 40 40 38 37 38 38 37 37 35 33 30 28 26 24 24 23 22 21 20 18 16 15 16 15 13 11 10 10 10 11 11 11 12 14 17 20 22 24 25 26 27 28 29 30 31 32 34 35 35 36 37 38 38 38 39 39 41
40 39 38 37 37 38 38 39 39 39 39 39 40 41 42 43 42 41 40 39 39 39 41 42 44 46 47 47 47 46 46 45 44 44 43 41 40 40 38 34 31 28 26 25 25 25 24 23 21 19 18 18 18 16 14 12 12 12 12 11 11 11 12 14 16 19 22 24 26 27 29 30 31 31 32 33 34 35 36 37 38 39 40 41 42 42
44 43 42 41 39 39 39 40 41 41 41 41 42 43 43 43 43 42 41 40 38 38 39 39 39 41 44 45 46 47 48 48 48 48 48 46 45 44 42 39 35 32 29 28 28 28 27 26 25 24 22 20 20 20 18 15 14 15 14 14 12 11 11 12 13 14 16 19 21 24 26 28 30 32 33 34 34 35 36 37 38 39 40 41 43 45
46 46 46 45 44 43 42 41 41 42 44 44 45 45 44 44 44 44 45 45 42 39 38 37 36 38 40 41 42 43 44 45 46 47 48 48 48 47 46 43 40 37 34 32 31 31 30 29 29 28 26 24 23 23 22 20 18 18 18 17 16 14 13 13 13 13 14 15 16 19 21 23 26 28 31 33 34 36 36 37 37 38 39 40 43 45
47 47 48 48 48 48 47 45 43 44 45 46 47 48 48 47 47 46 47 48 47 44 41 40 39 37 37 37 39 40 41 41 42 43 44 46 47 47 47 46 44 41 39 37 35 35 34 32 31 31 30 28 27 26 25 23 22 21 20 20 20 18 16 15 16 16 16 15 15 16 17 19 20 22 25 28 31 34 36 37 38 39 39 40 41 43
50 49 50 49 49 51 52 51 48 47 47 48 48 50 50 50 50 49 49 49 48 47 46 45 43 40 37 36 38 39 40 40 40 39 40 42 43 45 46 46 46 44 42 40 39 39 39 36 34 33 33 32 30 29 28 26 24 23 23 22 22 22 20 19 19 19 19 19 17 17 17 17 18 19 20 22 24 28 31 34 37 39 40 41 42 43
54 53 53 51 50 52 55 56 53 51 51 53 53 52 53 53 53 52 52 51 51 50 49 48 48 45 42 40 40 39 40 41 41 39 39 39 40 41 41 41 43 45 45 43 41 42 42 40 37 34 33 32 32 31 30 28 26 25 25 24 24 24 23 23 22 22 22 22 21 20 19 18 18 18 18 19 20 22 24 27 30 33 36 39 41 42
Wind_Direction
271 270 270 270 269 268 267 267 266 265 264 264 265 266 265 264 264 263 263 262 261 260 260 259 258 257 255 253 251 251 251 251 250 250 251 251 251 250 250 250 250 249 248 248 248 249 249 249 250 250 249 248 248 249 250 250 250 251 254 256 257 257 260 262 265 266 263 257 259 271 283 298 309 314 313 303 295 299 297 298 302 314 326 329 329 329
271 271 271 271 270 270 269 268 268 267 266 266 266 265 264 264 265 265 264 263 262 261 260 260 260 259 257 255 253 251 250 251 251 251 251 251 252 251 250 250 250 249 249 248 248 248 249 248 248 249 249 250 249 249 249 248 248 250 252 253 252 253 255 258 260 262 260 256 255 263 274 286 300 306 307 299 287 286 286 291 303 319 331 331 324 325
272 271 271 271 270 270 270 269 268 268 267 266 265 264 263 264 264 264 265 264 263 262 261 261 261 261 259 258 256 254 252 251 252 251 250 250 250 250 250 250 250 249 248 248 248 248 248 248 248 247 248 249 249 249 248 248 247 247 248 249 248 248 250 254 257 256 254 252 251 257 266 277 292 300 302 298 286 280 280 283 296 315 329 329 325 325
270 270 271 271 271 271 270 269 269 268 268 267 267 266 264 264 264 264 265 265 264 263 262 262 261 261 260 259 258 257 255 254 253 252 250 249 248 249 249 249 249 249 248 248 247 247 248 248 248 248 247 247 247 248 247 247 245 243 243 243 243 243 244 249 253 255 253 249 247 251 259 270 282 293 299 297 288 281 279 281 289 301 314 317 323 330
267 269 270 272 273 273 272 271 271 271 271 271 271 269 267 267 267 266 265 265 264 264 263 263 263 262 261 261 260 259 258 256 254 253 252 250 248 248 249 249 248 248 248 247 247 247 247 247 247 248 247 247 246 246 246 244 242 238 237 237 238 238 240 243 250 258 260 253 247 246 252 263 274 284 292 291 285 279 277 281 286 295 303 307 319 334
266 268 270 272 273 274 274 274 274 275 275 276 275 273 271 269 268 267 265 265 265 265 264 263 262 261 261 262 262 261 259 257 256 254 253 252 250 248 247 247 247 247 247 247 247 247 246 246 246 246 246 246 246 244 243 242 239 236 233 234 235 236 240 245 250 257 266 265 253 245 247 256 268 277 281 281 277 269 269 275 282 289 293 299 321 339
266 267 269 272 274 275 276 277 277 276 275 275 274 273 272 269 267 266 265 265 265 265 264 262 261 261 262 263 263 262 261 259 257 256 254 253 252 251 248 247 246 246 246 246 246 246 246 245 244 244 244 244 244 243 242 240 239 235 232 233 234 235 240 247 252 257 266 271 259 245 244 250 263 271 270 270 268 257 257 265 273 285 288 293 326 345
267 268 270 272 273 274 275 276 275 275 274 273 272 272 271 269 267 265 264 265 266 265 264 262 261 261 261 262 263 262 261 260 259 258 256 254 253 252 250 248 246 245 245 245 245 245 245 244 244 243 241 241 241 241 240 239 238 234 229 229 230 233 239 246 251 252 261 272 260 244 242 247 260 267 261 258 257 250 250 257 268 279 282 290 324 347
268 271 272 271 271 272 273 274 275 275 275 274 274 273 272 270 267 265 264 263 263 264 263 263 263 263 262 261 262 262 262 262 261 260 259 256 254 252 250 249 247 246 245 244 243 243 244 244 243 242 241 239 239 239 239 237 236 232 225 221 222 228 238 245 246 246 256 272 261 245 243 250 261 261 252 248 244 241 245 253 262 270 275 285 313 342
271 272 271 271 273 275 277 278 278 278 277 276 275 274 273 271 268 267 265 262 258 258 261 265 267 266 265 264 264 264 265 265 264 263 262 259 257 254 251 248 247 247 245 244 243 242 243 243 243 242 241 239 237 237 237 234 233 229 221 215 213 219 231 237 237 239 248 264 258 248 249 255 259 252 243 242 237 236 245 253 263 264 266 277 292 324
273 273 273 275 276 278 279 279 279 277 276 275 276 275 273 271 269 269 269 264 258 256 260 266 269 269 268 267 266 267 269 270 268 266 264 262 260 258 255 252 248 247 246 246 245 243 242 242 242 241 239 239 237 236 234 232 230 226 218 213 211 214 223 228 228 229 234 240 243 246 249 249 248 242 237 238 238 239 243 252 263 262 260 269 272 289
276 277 277 277 278 279 278 277 277 275 273 275 277 276 273 269 266 265 264 261 259 260 262 265 270 273 274 271 267 267 269 270 269 268 267 265 263 261 259 257 253 249 247 247 247 245 244 242 241 240 238 237 236 235 233 231 228 224 218 214 213 215 219 222 223 221 221 224 228 234 238 236 236 238 235 235 242 244 242 247 256 257 258 263 261 265
281 280 280 280 280 279 278 277 277 275 275 276 276 275 273 270 264 260 258 257 257 258 261 266 273 279 281 278 275 272 268 267 267 268 268 267 265 263 262 261 259 255 250 247 246 245 244 243 241 239 237 236 235 234 232 230 227 224 219 216 216 216 217 219 222 220 217 217 218 222 228 229 230 234 236 240 251 257 257 254 253 254 257 260 258 258
285 284 283 284 283 281 279 279 277 275 275 275 274 272 271 269 263 258 259 260 259 258 262 267 272 277 279 281 283 278 271 268 267 266 265 265 266 266 265 265 264 261 256 249 244 242 241 241 240 238 236 234 234 233 231 229 226 224 222 220 218 218 218 219 220 221 220 219 217 221 230 232 230 233 240 248 255 265 271 269 262 259 261 263 256 254
287 286 285 286 285 283 281 278 274 272 273 274 273 272 270 266 258 253 257 263 264 262 261 263 267 272 277 281 282 279 274 270 268 266 265 265 266 267 267 267 266 265 261 256 248 241 238 237 236 235 234 233 232 232 231 228 226 224 223 223 222 221 221 221 221 222 223 223 222 229 238 239 235 237 246 251 251 255 263 269 268 266 270 269 254 249
286 286 287 286 282 279 277 275 271 270 270 270 270 270 271 265 252 243 246 254 258 259 260 262 266 273 278 279 277 273 270 267 266 266 267 267 268 267 266 264 265 265 264 261 256 248 241 236 234 232 231 231 231 231 231 229 226 224 223 223 224 224 224 224 224 224 225 225 224 231 244 246 242 241 248 253 254 252 253 260 267 268 271 270 260 250
288 286 286 283 279 277 276 275 273 269 266 264 266 268 268 261 248 236 234 243 250 256 257 256 267 275 275 273 271 270 269 267 265 265 266 267 268 269 268 267 267 267 264 260 256 252 246 241 237 233 230 228 228 228 229 229 227 225 223 223 224 225 225 225 225 225 226 228 228 234 245 248 244 242 247 253 256 255 253 253 260 266 270 271 266 257
292 288 286 283 280 278 277 275 272 266 262 261 263 263 260 253 245 236 235 241 246 249 248 250 268 272 267 264 266 268 270 270 268 266 263 262 262 266 269 270 269 267 264 259 255 252 249 246 242 237 232 228 226 225 225 227 227 225 223 223 223 224 224 224 224 224 226 230 233 237 243 245 242 239 243 247 249 254 254 251 256 265 273 277 271 261
287 286 283 281 279 279 278 275 271 267 263 261 259 257 253 246 240 237 240 246 247 244 242 249 266 268 269 277 277 276 276 276 275 272 267 261 258 260 266 268 265 263 262 261 257 253 250 246 243 238 233 229 225 222 221 223 224 224 224 223 223 223 224 223 223 223 225 230 234 238 238 238 235 232 235 239 242 249 252 251 256 263 269 274 272 270
279 276 274 274 276 278 279 276 273 269 265 260 254 250 245 237 234 236 242 250 253 250 243 248 263 273 289 298 295 292 289 284 280 278 275 270 264 262 265 265 261 258 258 260 259 253 248 245 243 238 233 229 225 222 220 220 221 223 223 223 223 224 224 225 225 224 225 229 233 235 232 229 227 227 231 236 240 245 248 249 254 258 262 266 270 277
282 278 274 272 272 272 272 271 265 259 257 255 249 243 236 230 229 234 240 249 255 256 255 260 269 282 298 301 299 298 291 282 278 279 282 282 278 275 273 266 258 253 254 256 253 246 243 242 245 244 238 231 226 222 220 219 219 221 222 222 223 223 224 226 227 226 226 227 230 230 228 224 220 221 227 232 237 240 242 247 251 252 257 261 263 272
281 280 277 273 269 267 264 261 254 246 246 248 244 238 232 228 229 233 238 244 251 256 265 271 271 280 292 294 296 302 293 280 276 278 285 291 287 285 282 269 255 247 251 252 241 233 244 252 252 252 246 237 229 223 221 219 218 219 221 222 223 223 223 224 226 226 225 224 225 226 228 225 217 217 221 225 232 235 236 242 249 250 253 252 252 261
273 274 273 270 267 266 265 261 250 240 238 239 237 233 228 226 229 234 238 241 246 252 260 264 265 268 275 278 286 299 298 284 276 275 279 281 279 279 280 271 255 243 243 241 226 215 247 266 270 268 256 244 235 227 224 221 219 218 219 221 222 222 222 222 223 224 222 220 220 223 228 227 220 218 219 222 229 232 231 237 245 248 247 240 240 255
268 270 272 273 269 265 263 260 248 238 236 235 231 228 225 223 226 231 236 240 243 246 250 253 253 252 257 269 280 292 293 283 275 270 259 253 260 265 268 266 257 247 237 226 208 199 225 248 262 269 264 251 240 231 226 223 220 218 218 219 220 221 220 221 221 221 220 218 218 220 225 227 223 222 222 222 225 227 228 235 241 243 239 233 238 252
263 268 273 277 276 269 263 259 249 237 234 234 230 226 224 223 225 229 233 239 242 243 246 247 245 242 249 266 279 287 288 284 283 276 247 236 243 247 252 253 249 246 238 221 204 198 212 230 244 256 263 257 245 233 226 223 220 219 219 219 220 220 220 220 220 219 218 217 217 220 223 224 223 223 222 221 223 223 226 233 238 238 235 233 240 247
258 264 269 273 277 274 267 262 254 242 236 235 229 225 225 225 226 229 233 238 243 245 246 247 247 247 252 266 277 283 289 296 305 308 276 254 250 240 237 240 239 239 235 221 207 201 208 221 232 242 251 254 249 234 225 222 220 219 220 220 220 220 220 220 219 219 218 217 218 220 221 221 221 221 219 220 222 222 224 229 234 236 234 233 238 243
255 258 263 267 271 274 269 263 257 247 240 236 230 224 225 226 227 230 235 238 243 248 249 249 253 259 262 269 276 285 297 311 319 325 316 281 270 255 239 235 232 231 230 222 213 209 211 218 225 231 237 241 243 236 225 220 220 218 217 219 219 219 220 220 220 220 219 218 220 220 219 220 220 218 216 216 216 219 225 229 231 235 236 234 238 247
254 255 259 263 265 268 267 259 251 246 240 235 231 225 222 224 227 231 236 239 243 248 252 252 257 262 262 263 271 284 297 307 314 325 323 295 279 269 254 245 238 228 224 221 217 216 216 217 220 222 226 231 234 234 227 220 219 218 217 218 218 218 219 219 220 220 219 219 219 219 219 219 217 216 216 214 212 217 228 234 235 238 238 234 238 250
254 256 259 262 263 264 265 259 250 245 241 237 234 228 223 223 227 228 231 236 240 245 250 252 256 261 259 255 260 271 280 288 299 321 324 300 285 275 259 250 247 236 225 221 221 221 220 220 220 219 218 222 227 230 230 224 219 218 219 219 218 216 215 217 218 219 219 218 218 219 221 218 211 211 214 214 213 216 224 231 235 238 239 237 239 247
252 255 258 260 263 264 266 263 253 245 242 240 237 233 228 227 229 229 227 230 236 240 245 248 252 257 258 255 252 254 261 272 284 303 312 300 294 290 271 251 248 243 234 227 225 226 225 224 224 223 218 219 221 224 227 226 223 222 222 222 220 217 215 214 216 217 216 215 215 218 219 215 209 209 211 212 211 212 216 223 229 233 237 238 236 237
250 253 257 258 260 262 264 265 259 248 242 240 237 235 233 232 234 234 231 229 233 237 242 245 247 251 255 256 252 247 248 259 271 279 288 293 299 308 297 262 246 244 238 232 230 230 231 228 228 227 224 221 221 221 222 225 225 226 228 227 223 219 216 215 216 217 217 213 212 213 214 212 209 210 211 210 208 209 213 220 226 229 232 234 231 232
250 249 254 257 258 259 260 262 262 254 246 242 239 236 236 236 238 239 236 232 233 237 239 240 241 245 251 255 255 250 243 246 259 267 274 286 296 309 312 286 253 243 238 233 231 232 234 234 231 229 228 226 225 223 221 221 222 224 228 231 229 224 220 218 220 222 221 216 212 210 211 210 208 209 211 211 211 211 213 217 221 224 226 228 229 232
251 247 250 254 257 257 255 255 258 256 251 247 242 238 238 239 240 240 237 233 232 234 235 237 239 243 249 255 258 257 247 239 249 260 267 277 286 298 309 308 274 250 241 237 236 234 235 236 234 231 230 229 228 227 224 222 221 221 223 227 230 231 228 225 223 224 225 221 216 211 209 208 208 211 213 213 214 216 218 220 222 223 224 227 229 230
250 244 245 249 253 254 252 249 250 252 254 251 243 239 238 239 239 237 232 228 227 227 230 235 239 242 248 254 259 259 253 243 248 258 262 267 276 285 298 311 305 270 249 242 241 241 238 236 235 233 232 231 231 232 230 228 226 225 224 224 225 229 232 232 230 228 228 228 224 217 210 207 210 214 216 216 216 216 218 221 222 223 226 229 231 232
252 244 241 243 248 253 252 247 244 249 256 252 242 237 239 239 239 238 234 229 226 225 227 231 234 238 242 249 257 260 256 248 249 259 262 263 268 275 285 301 310 298 272 250 243 242 242 239 235 233 233 233 233 234 235 236 234 231 230 229 226 225 227 230 232 232 231 231 231 226 218 213 213 216 217 218 218 217 217 220 225 230 233 235 235 235
256 249 242 239 243 249 252 249 242 242 250 250 241 234 236 238 238 240 239 234 229 227 228 229 232 235 238 243 252 259 259 253 249 258 264 263 264 269 277 287 296 299 293 272 251 243 242 241 237 232 232 233 234 235 236 239 240 239 237 236 234 230 227 227 227 228 228 227 229 230 226 223 222 221 220 220 221 222 224 228 233 235 236 236 235 235
261 256 248 241 239 242 248 249 244 240 246 250 245 235 233 235 237 238 238 236 233 231 231 231 232 235 237 240 248 257 261 258 252 256 264 265 263 266 270 276 281 287 293 290 272 253 244 241 239 235 232 231 232 234 236 238 241 242 242 241 240 237 232 229 227 227 227 227 227 229 230 229 229 228 227 226 226 229 232 235 237 237 236 234 233 234
261 260 256 250 245 243 244 246 245 242 244 248 247 242 236 234 236 237 236 236 235 235 235 234 234 236 238 241 246 254 261 261 255 251 256 260 260 261 263 267 269 274 282 288 286 274 257 247 242 238 234 231 230 231 234 237 239 241 243 244 244 242 239 234 231 229 230 232 232 232 233 233 234 234 233 232 231 232 234 235 236 236 234 232 233 235
262 260 260 259 254 249 247 246 244 243 243 245 248 247 242 238 236 238 237 236 237 239 239 237 236 237 239 242 244 250 258 260 258 250 245 248 252 252 253 257 260 262 270 277 282 281 271 257 247 242 238 233 229 229 232 237 239 241 242 243 244 245 243 239 236 234 234 235 237 237 237 237 239 239 240 239 237 235 235 235 236 235 234 232 233 234
263 260 259 259 256 253 252 251 247 245 244 245 247 248 246 241 238 238 239 239 241 244 243 241 240 238 240 243 244 247 253 258 259 255 246 244 248 249 246 248 251 252 257 266 274 277 275 264 251 244 241 237 234 234 235 239 242 243 244 243 243 243 244 242 239 238 237 237 238 240 240 241 242 242 243 243 242 240 238 237 236 236 236 235 234 233
263 259 256 256 254 252 252 252 251 248 246 246 247 247 246 243 240 239 239 240 243 245 245 244 242 240 240 242 243 246 251 256 260 260 254 246 248 251 249 245 246 246 247 253 262 269 272 269 257 247 242 239 239 241 241 241 244 246 246 244 243 242 242 242 241 239 239 239 240 241 242 244 245 245 244 244 244 244 243 241 239 238 238 238 237 235
262 260 257 254 253 252 249 249 250 250 248 248 249 249 249 247 245 243 242 241 243 245 245 245 244 242 240 240 241 242 246 252 257 261 259 252 247 249 251 248 246 245 245 246 251 259 265 267 262 253 247 243 242 246 246 243 244 246 246 244 243 242 242 241 242 241 239 239 240 241 243 244 245 246 245 244 244 245 246 245 244 242 240 240 240 239
263 260 258 256 254 253 251 249 249 249 248 247 248 249 250 251 251 249 246 245 246 246 246 246 245 244 243 241 240 239 240 243 249 256 259 257 250 247 248 249 248 246 245 244 244 248 255 259 257 252 249 247 246 248 247 245 244 244 242 240 240 242 242 242 242 243 243 242 241 241 241 242 244 245 245 245 245 245 246 246 247 246 244 243 242 241
268 263 259 256 255 254 252 251 250 249 248 247 247 248 250 252 253 252 249 247 246 246 246 246 245 244 243 243 242 241 240 239 242 248 254 257 255 250 246 246 247 246 245 244 243 243 246 250 252 249 245 245 246 245 244 242 242 242 237 234 237 241 244 245 243 243 244 244 244 243 242 242 243 243 244 244 244 244 245 246 247 248 248 247 246 245
269 266 262 258 256 254 253 252 252 251 250 249 249 249 250 251 253 254 253 251 249 246 245 245 244 243 242 242 242 243 244 243 242 244 247 251 254 254 249 245 244 245 245 244 243 243 242 243 246 246 243 241 241 239 238 237 239 241 238 233 233 237 242 246 246 245 244 244 245 245 245 244 244 243 243 243 243 243 244 244 246 247 248 249 248 248
268 266 264 261 258 255 253 252 251 251 251 250 250 249 249 249 250 252 253 253 251 249 245 243 243 243 242 242 243 243 245 246 245 244 245 246 248 251 251 248 245 244 245 245 243 242 241 240 242 243 241 238 236 234 233 233 235 238 238 234 230 231 234 239 243 244 244 244 244 245 245 245 245 244 244 243 243 243 243 244 244 246 247 248 248 248
267 265 263 262 259 257 255 252 251 250 249 249 249 249 248 247 248 248 248 247 249 250 249 246 245 244 243 242 243 243 244 245 245 245 245 244 244 246 248 248 247 245 244 245 244 243 240 238 239 240 239 236 234 233 232 231 231 233 236 235 231 229 229 230 233 237 240 241 242 242 244 245 246 246 246 245 244 243 243 243 244 245 246 247 248 248
265 264 262 261 260 258 256 253 251 250 249 248 248 248 247 247 246 245 245 245 245 247 248 247 247 246 244 243 243 244 243 243 243 244 244 243 243 243 243 244 245 245 244 244 245 245 243 239 236 237 238 237 236 236 235 234 232 232 234 235 234 233 234 234 233 234 238 239 240 240 242 243 245 246 247 247 246 245 244 244 244 244 245 246 246 247
265 263 262 260 259 258 256 254 252 252 251 249 248 248 247 246 245 244 244 245 244 243 244 245 245 246 245 244 244 244 243 242 241 241 241 241 241 241 241 240 240 242 242 243 243 245 245 242 237 235 236 236 236 237 238 238 236 234 235 236 236 235 239 243 244 242 241 242 242 243 243 243 244 245 247 248 248 248 246 245 245 244 244 245 245 245
268 265 262 261 259 259 258 255 252 251 252 251 249 248 247 246 245 244 243 244 243 243 243 243 243 243 242 241 243 245 243 241 241 241 241 240 240 240 240 240 239 238 239 240 241 243 244 243 240 236 235 235 236 237 239 241 240 238 238 239 240 239 242 248 251 250 248 245 245 246 247 248 247 247 248 250 250 250 250 248 247 246 246 245 245 246
271 267 265 262 260 259 258 256 252 250 250 250 249 248 247 245 244 243 242 242 242 242 242 241 240 240 239 236 238 242 242 239 240 242 242 241 240 240 241 240 239 237 237 237 238 240 241 242 242 239 236 236 237 239 240 243 245 245 243 243 244 245 246 250 254 256 255 251 249 249 250 252 252 251 252 252 253 254 254 253 251 249 249 248 248 247
Height
10877 10876 10875 10875 10877 10879 10881 10882 10881 10881 10881 10882 10884 10885 10884 10883 10883 10883 10884 10884 10884 10884 10885 10886 10887 10887 10888 10891 10893 10896 10898 10900 10902 10903 10905 10908 10910 10912 10914 10916 10918 10921 10923 10924 10924 10925 10928 10930 10932 10935 10937 10941 10944 10946 10948 10952 10954 10956 10958 10960 10962 10964 10965 10967 10968 10969 10970 10971 10971 10971 10971 10971 10972 10971 10971 10970 10970 10970 10970 10970 10970 10969 10969 10968 10967 10965
10872 10872 10871 10871 10872 10874 10876 10877 10877 10877 10877 10878 10880 10880 10879 10879 10879 10879 10879 10879 10879 10880 10881 10882 10881 10881 10882 10885 10887 10890 10893 10895 10897 10899 10902 10904 10906 10908 10909 10911 10913 10915 10917 10919 10919 10920 10922 10924 10927 10930 10933 10936 10939 10942 10944 10946 10949 10952 10954 10957 10959 10961 10962 10963 10965 10966 10968 10969 10969 10969 10969 10970 10970 10970 10970 10970 10969 10969 10969 10969 10969 10968 10968 10967 10966 10965
10868 10867 10866 10866 10867 10870 10871 10872 10873 10872 10872 10873 10875 10875 10874 10874 10874 10875 10875 10874 10875 10876 10877 10877 10876 10875 10876 10878 10881 10885 10888 10891 10892 10894 10897 10899 10901 10902 10904 10906 10908 10910 10912 10913 10914 10916 10917 10919 10921 10925 10928 10931 10934 10937 10939 10941 10944 10948 10950 10952 10955 10957 10959 10960 10961 10962 10964 10966 10967 10967 10968 10968 10969 10969 10968 10968 10968 10968 10968 10968 10968 10968 10967 10966 10965 10964
10863 10862 10861 10861 10863 10865 10867 10868 10868 10868 10868 10869 10870 10870 10870 10870 10870 10871 10870 10869 10870 10871 10872 10872 10872 10870 10870 10873 10876 10880 10883 10886 10887 10888 10891 10894 10896 10897 10899 10901 10903 10904 10906 10908 10909 10910 10912 10914 10917 10920 10923 10926 10929 10932 10934 10937 10940 10943 10945 10948 10950 10952 10954 10955 10957 10958 10960 10962 10964 10966 10966 10967 10967 10967 10967 10967 10967 10967 10967 10967 10967 10966 10966 10966 10965 10963
10859 10858 10857 10857 10858 10860 10862 10863 10864 10864 10864 10865 10865 10865 10865 10866 10865 10866 10865 10864 10865 10867 10867 10867 10866 10865 10866 10869 10872 10875 10878 10879 10881 10882 10885 10887 10891 10893 10895 10896 10898 10899 10900 10902 10904 10905 10907 10909 10912 10916 10919 10922 10924 10927 10930 10932 10935 10938 10940 10942 10945 10947 10950 10951 10953 10955 10957 10958 10961 10963 10964 10965 10965 10966 10966 10966 10966 10966 10966 10966 10965 10965 10965 10964 10964 10963
10855 10854 10854 10854 10855 10855 10857 10858 10859 10860 10860 10860 10860 10860 10861 10861 10861 10860 10860 10860 10861 10862 10862 10862 10860 10860 10862 10865 10867 10869 10871 10873 10874 10877 10879 10882 10885 10887 10889 10891 10893 10894 10895 10896 10898 10900 10902 10905 10908 10911 10914 10917 10920 10923 10925 10927 10929 10932 10935 10938 10941 10944 10946 10948 10951 10953 10954 10955 10957 10960 10962 10963 10964 10964 10965 10964 10964 10964 10964 10964 10964 10964 10963 10963 10962 10962
10851 10851 10851 10852 10852 10852 10852 10853 10854 10855 10855 10855 10854 10855 10856 10856 10856 10856 10856 10856 10857 10857 10857 10856 10855 10856 10860 10862 10863 10864 10865 10866 10869 10871 10874 10876 10879 10881 10883 10886 10887 10888 10889 10891 10893 10895 10897 10899 10903 10906 10910 10913 10915 10918 10920 10922 10924 10928 10932 10936 10939 10941 10944 10946 10949 10950 10951 10953 10954 10957 10958 10960 10961 10962 10963 10963 10963 10963 10963 10963 10963 10963 10962 10962 10962 10961
10847 10848 10849 10850 10849 10848 10849 10849 10850 10850 10850 10850 10849 10850 10851 10851 10852 10851 10852 10853 10853 10853 10852 10850 10851 10854 10857 10858 10858 10859 10860 10861 10863 10865 10868 10871 10873 10875 10877 10879 10881 10882 10883 10885 10887 10889 10891 10894 10897 10901 10905 10908 10910 10912 10914 10917 10921 10925 10929 10933 10936 10938 10940 10943 10945 10947 10949 10950 10951 10953 10955 10957 10959 10960 10960 10961 10961 10961 10961 10961 10961 10961 10961 10961 10961 10960
10845 10846 10847 10846 10845 10845 10846 10846 10846 10847 10846 10846 10846 10847 10847 10847 10848 10848 10849 10850 10850 10850 10848 10847 10848 10851 10853 10854 10854 10854 10855 10857 10859 10860 10862 10864 10866 10868 10870 10872 10874 10875 10877 10879 10881 10883 10886 10889 10892 10896 10900 10903 10905 10906 10909 10914 10918 10922 10926 10929 10932 10936 10938 10940 10942 10944 10946 10947 10948 10950 10952 10955 10957 10958 10958 10959 10960 10960 10960 10960 10960 10960 10960 10960 10960 10959
10843 10844 10843 10843 10843 10843 10843 10844 10844 10844 10844 10843 10843 10844 10844 10844 10845 10845 10846 10847 10847 10846 10845 10845 10847 10848 10850 10851 10851 10851 10852 10853 10854 10855 10856 10857 10859 10860 10863 10865 10867 10869 10871 10873 10875 10878 10881 10884 10888 10892 10895 10898 10899 10901 10905 10910 10914 10918 10922 10926 10929 10932 10934 10936 10938 10941 10943 10944 10945 10947 10950 10953 10955 10956 10957 10958 10958 10959 10959 10959 10959 10959 10959 10959 10958 10958
10840 10841 10841 10840 10841 10841 10841 10841 10841 10841 10841 10841 10841 10842 10842 10842 10842 10842 10843 10844 10844 10844 10844 10844 10845 10846 10848 10849 10848 10849 10849 10849 10850 10850 10851 10852 10853 10854 10856 10858 10861 10863 10865 10868 10870 10873 10876 10879 10883 10887 10891 10893 10894 10896 10901 10906 10910 10914 10918 10922 10925 10928 10930 10932 10934 10937 10940 10942 10943 10945 10948 10950 10952 10954 10955 10956 10957 10957 10957 10958 10958 10958 10958 10958 10957 10957
10838 10838 10838 10838 10838 10838 10838 10838 10838 10838 10838 10839 10840 10840 10840 10840 10840 10840 10840 10841 10841 10842 10842 10843 10844 10845 10846 10846 10846 10847 10847 10847 10846 10846 10847 10847 10847 10849 10850 10852 10855 10858 10861 10864 10866 10868 10871 10875 10878 10882 10886 10888 10889 10891 10896 10901 10905 10910 10913 10917 10920 10922 10925 10928 10931 10933 10936 10938 10940 10942 10945 10947 10949 10951 10952 10954 10955 10955 10956 10956 10956 10956 10956 10957 10957 10956
10836 10836 10836 10836 10836 10836 10836 10836 10836 10835 10836 10837 10837 10837 10837 10838 10838 10838 10838 10839 10840 10841 10841 10842 10843 10844 10844 10844 10845 10846 10845 10844 10844 10843 10843 10843 10843 10845 10846 10847 10849 10853 10856 10859 10861 10864 10866 10869 10873 10876 10880 10882 10884 10886 10891 10896 10900 10904 10908 10911 10914 10917 10920 10924 10927 10930 10931 10934 10937 10939 10941 10943 10945 10948 10950 10952 10953 10954 10954 10954 10954 10955 10955 10955 10956 10955
10834 10834 10834 10834 10834 10834 10833 10834 10834 10833 10834 10835 10835 10835 10836 10836 10837 10837 10837 10838 10839 10840 10841 10842 10843 10843 10843 10843 10843 10843 10842 10842 10841 10841 10840 10840 10840 10842 10843 10844 10845 10847 10850 10853 10856 10858 10861 10863 10866 10870 10874 10877 10879 10882 10886 10891 10894 10899 10902 10906 10909 10912 10916 10920 10923 10926 10928 10930 10934 10936 10939 10941 10943 10946 10948 10950 10951 10952 10953 10953 10953 10954 10954 10954 10954 10954
10832 10832 10832 10832 10832 10831 10831 10832 10831 10831 10832 10832 10832 10833 10834 10835 10836 10836 10837 10838 10839 10840 10841 10842 10843 10843 10842 10842 10841 10840 10839 10839 10838 10838 10838 10838 10838 10839 10841 10841 10841 10842 10844 10847 10850 10853 10855 10857 10860 10864 10868 10871 10874 10877 10880 10885 10889 10893 10897 10901 10904 10908 10912 10915 10919 10922 10924 10928 10930 10932 10936 10939 10941 10944 10947 10948 10949 10950 10951 10951 10952 10952 10952 10952 10953 10953
10830 10829 10830 10830 10829 10829 10829 10829 10829 10829 10830 10830 10830 10831 10832 10834 10835 10836 10836 10837 10838 10839 10841 10842 10842 10842 10841 10840 10839 10838 10837 10837 10836 10836 10836 10836 10836 10836 10838 10838 10838 10839 10841 10843 10845 10847 10850 10852 10855 10858 10862 10866 10869 10872 10875 10879 10883 10887 10892 10896 10899 10903 10907 10911 10914 10918 10921 10924 10927 10929 10933 10937 10940 10942 10945 10946 10947 10947 10948 10950 10951 10951 10951 10951 10951 10951
10828 10828 10828 10828 10827 10827 10827 10827 10827 10827 10828 10828 10828 10829 10831 10832 10833 10834 10835 10835 10836 10838 10840 10841 10841 10840 10840 10839 10837 10836 10835 10835 10834 10835 10835 10835 10834 10834 10835 10836 10837 10838 10839 10840 10842 10843 10846 10848 10851 10854 10857 10861 10864 10867 10871 10874 10878 10882 10887 10890 10894 10897 10902 10906 10910 10914 10917 10920 10924 10928 10931 10934 10937 10940 10943 10944 10945 10945 10946 10948 10949 10950 10950 10950 10949 10950
10827 10826 10826 10825 10825 10825 10825 10825 10825 10825 10825 10826 10827 10828 10829 10830 10831 10833 10834 10834 10835 10837 10838 10839 10839 10838 10838 10837 10835 10835 10834 10833 10833 10833 10833 10833 10832 10832 10833 10835 10836 10836 10836 10838 10839 10841 10843 10845 10847 10850 10853 10855 10859 10862 10866 10869 10873 10877 10880 10884 10887 10892 10896 10901 10906 10910 10914 10917 10921 10926 10929 10931 10934 10937 10940 10942 10942 10943 10944 10946 10947 10948 10949 10948 10948 10948
10824 10823 10823 10823 10822 10822 10823 10823 10823 10823 10824 10825 10826 10826 10827 10829 10830 10831 10832 10832 10833 10835 10836 10837 10837 10836 10835 10835 10834 10833 10832 10831 10831 10831 10831 10831 10830 10831 10832 10833 10833 10834 10834 10835 10837 10839 10840 10842 10843 10845 10847 10850 10853 10857 10860 10863 10867 10871 10874 10878 10882 10887 10892 10897 10901 10906 10910 10914 10918 10923 10926 10928 10931 10934 10936 10938 10940 10941 10942 10944 10945 10946 10947 10947 10947 10947
10821 10820 10820 10820 10819 10819 10820 10820 10821 10821 10822 10823 10824 10824 10826 10827 10828 10829 10830 10831 10832 10833 10835 10835 10835 10834 10833 10832 10832 10831 10830 10829 10829 10828 10828 10828 10829 10829 10830 10831 10831 10832 10833 10834 10835 10837 10838 10838 10839 10841 10843 10845 10848 10851 10855 10858 10862 10866 10869 10873 10878 10884 10889 10893 10898 10902 10907 10911 10915 10919 10922 10924 10927 10930 10932 10935 10937 10939 10940 10942 10942 10943 10944 10944 10945 10945
10820 10818 10818 10817 10816 10816 10817 10818 10818 10819 10819 10821 10822 10823 10824 10825 10827 10828 10828 10829 10830 10831 10833 10834 10834 10833 10832 10831 10830 10830 10829 10828 10827 10827 10827 10827 10827 10828 10828 10829 10830 10831 10833 10834 10834 10835 10835 10836 10837 10838 10840 10842 10845 10847 10850 10853 10856 10860 10865 10870 10875 10881 10886 10890 10894 10898 10903 10908 10912 10915 10917 10920 10923 10926 10929 10932 10934 10936 10937 10939 10940 10940 10941 10942 10942 10943
10818 10816 10816 10815 10814 10814 10814 10815 10815 10816 10817 10819 10820 10821 10823 10824 10825 10826 10827 10828 10829 10830 10831 10832 10832 10832 10831 10830 10829 10828 10827 10826 10826 10826 10826 10826 10826 10826 10826 10828 10829 10831 10832 10833 10834 10834 10834 10835 10836 10837 10838 10840 10842 10844 10846 10849 10853 10858 10863 10868 10874 10878 10882 10886 10890 10895 10900 10904 10908 10911 10914 10917 10920 10922 10925 10928 10930 10932 10934 10935 10936 10937 10938 10938 10939 10940
10815 10814 10814 10813 10813 10812 10812 10812 10813 10814 10815 10817 10818 10819 10821 10822 10824 10825 10826 10826 10827 10828 10829 10829 10830 10830 10830 10829 10828 10827 10826 10825 10825 10825 10825 10825 10825 10825 10825 10827 10828 10830 10832 10832 10832 10833 10834 10835 10836 10837 10837 10838 10839 10841 10843 10846 10851 10856 10861 10866 10870 10875 10879 10883 10887 10892 10897 10901 10904 10907 10910 10914 10916 10919 10922 10925 10927 10929 10930 10932 10933 10934 10934 10935 10936 10937
10813 10812 10811 10812 10812 10811 10810 10810 10811 10812 10813 10814 10815 10817 10819 10820 10821 10822 10823 10824 10825 10826 10826 10827 10827 10828 10828 10827 10826 10825 10824 10824 10823 10824 10824 10824 10824 10824 10825 10826 10827 10828 10830 10831 10832 10833 10834 10835 10835 10836 10837 10837 10838 10840 10842 10845 10849 10853 10858 10862 10867 10871 10876 10880 10884 10889 10893 10896 10900 10903 10906 10909 10912 10915 10918 10921 10924 10926 10928 10929 10930 10930 10931 10932 10932 10933
10811 10810 10809 10809 10810 10810 10809 10808 10808 10809 10810 10812 10813 10815 10817 10818 10819 10820 10821 10822 10823 10824 10824 10824 10825 10826 10826 10825 10824 10823 10823 10822 10822 10822 10823 10822 10823 10823 10824 10825 10825 10827 10828 10830 10831 10832 10834 10835 10835 10836 10836 10837 10838 10840 10841 10844 10848 10851 10856 10860 10864 10868 10872 10877 10881 10885 10888 10892 10895 10899 10902 10905 10908 10911 10914 10918 10920 10922 10924 10926 10926 10927 10928 10929 10930 10931
10808 10808 10807 10807 10807 10807 10807 10807 10807 10808 10808 10809 10811 10813 10814 10816 10817 10818 10819 10820 10821 10822 10823 10823 10825 10825 10825 10824 10823 10822 10821 10821 10821 10821 10821 10821 10822 10822 10823 10823 10824 10825 10827 10828 10830 10831 10833 10834 10835 10835 10836 10837 10838 10840 10841 10843 10847 10850 10854 10858 10861 10865 10869 10873 10877 10881 10885 10888 10891 10894 10898 10901 10904 10907 10911 10914 10916 10919 10921 10922 10923 10925 10926 10927 10928 10930
10806 10806 10805 10805 10805 10805 10805 10806 10806 10806 10807 10807 10808 10810 10811 10813 10815 10817 10818 10819 10820 10821 10821 10823 10824 10824 10824 10824 10822 10821 10820 10820 10820 10820 10820 10820 10820 10821 10822 10822 10823 10824 10825 10827 10828 10830 10832 10833 10834 10835 10836 10837 10838 10839 10841 10843 10846 10849 10853 10856 10859 10863 10866 10870 10874 10878 10881 10885 10888 10891 10895 10898 10901 10904 10907 10910 10912 10915 10917 10919 10920 10922 10923 10925 10927 10929
10803 10803 10803 10803 10803 10803 10803 10804 10804 10804 10804 10805 10805 10807 10808 10810 10812 10814 10816 10817 10819 10819 10820 10822 10823 10823 10823 10823 10822 10821 10820 10820 10820 10819 10819 10819 10819 10820 10820 10821 10821 10823 10824 10825 10826 10827 10830 10832 10833 10834 10835 10836 10837 10839 10841 10843 10845 10848 10852 10855 10858 10861 10864 10868 10871 10874 10878 10881 10884 10888 10892 10894 10897 10901 10904 10907 10909 10912 10914 10916 10918 10920 10921 10924 10926 10927
10800 10800 10800 10800 10801 10802 10802 10802 10802 10802 10802 10803 10803 10804 10806 10808 10809 10810 10813 10815 10817 10818 10819 10820 10821 10821 10821 10821 10821 10820 10819 10819 10819 10819 10818 10818 10817 10818 10819 10819 10820 10821 10822 10823 10824 10825 10827 10830 10831 10833 10835 10836 10837 10838 10840 10842 10844 10847 10850 10853 10856 10859 10862 10865 10868 10871 10874 10878 10882 10885 10888 10891 10894 10898 10900 10903 10906 10909 10911 10914 10916 10918 10920 10922 10925 10925
10797 10797 10798 10798 10799 10799 10800 10799 10800 10800 10800 10801 10802 10803 10805 10806 10807 10808 10811 10813 10814 10815 10816 10818 10818 10818 10818 10819 10819 10819 10819 10818 10818 10818 10818 10817 10816 10816 10817 10818 10818 10819 10820 10821 10822 10823 10825 10828 10830 10832 10833 10835 10836 10837 10839 10841 10843 10845 10848 10851 10854 10857 10860 10863 10865 10868 10872 10875 10878 10881 10884 10887 10891 10894 10896 10899 10903 10905 10909 10912 10914 10915 10917 10919 10921 10922
10794 10794 10795 10795 10796 10797 10798 10798 10798 10798 10798 10799 10800 10802 10803 10805 10807 10808 10810 10811 10812 10813 10814 10815 10816 10816 10815 10816 10817 10817 10817 10817 10817 10817 10817 10816 10815 10815 10816 10816 10817 10817 10818 10819 10820 10821 10823 10825 10827 10830 10832 10833 10834 10836 10838 10840 10842 10844 10846 10849 10852 10855 10857 10860 10863 10866 10868 10871 10874 10877 10880 10883 10887 10891 10894 10897 10900 10903 10906 10909 10910 10911 10912 10914 10915 10917
10791 10791 10792 10792 10793 10794 10795 10796 10796 10796 10796 10797 10798 10800 10802 10804 10806 10807 10809 10810 10811 10811 10812 10813 10813 10813 10813 10813 10814 10815 10816 10816 10816 10815 10816 10815 10815 10815 10815 10815 10815 10816 10817 10818 10818 10819 10821 10823 10825 10827 10829 10831 10832 10834 10836 10838 10840 10842 10844 10847 10849 10852 10855 10857 10860 10863 10865 10868 10870 10874 10877 10880 10883 10887 10890 10893 10896 10898 10900 10901 10902 10905 10907 10909 10911 10913
10786 10787 10788 10788 10789 10790 10792 10793 10793 10794 10794 10795 10796 10798 10800 10802 10803 10805 10807 10808 10809 10809 10809 10810 10810 10811 10811 10811 10811 10812 10813 10815 10815 10814 10814 10814 10814 10814 10814 10814 10814 10814 10815 10816 10816 10817 10819 10821 10822 10825 10827 10828 10830 10831 10833 10835 10837 10840 10842 10845 10847 10849 10852 10855 10858 10860 10862 10864 10867 10870 10874 10877 10879 10881 10884 10887 10890 10892 10894 10895 10896 10899 10901 10904 10907 10908
10781 10782 10784 10785 10785 10786 10788 10790 10791 10792 10792 10791 10793 10796 10798 10799 10801 10802 10803 10804 10806 10806 10807 10807 10808 10808 10809 10808 10808 10809 10811 10813 10814 10813 10813 10813 10813 10813 10812 10812 10813 10813 10813 10814 10814 10815 10817 10819 10821 10822 10824 10826 10827 10829 10831 10833 10835 10837 10839 10842 10845 10847 10850 10853 10855 10857 10859 10861 10864 10867 10870 10873 10875 10876 10880 10883 10886 10888 10890 10892 10894 10896 10898 10901 10902 10903
10777 10778 10779 10781 10781 10782 10784 10786 10788 10789 10788 10787 10789 10793 10795 10797 10798 10798 10800 10802 10803 10803 10804 10804 10805 10806 10806 10806 10806 10806 10807 10810 10812 10811 10811 10812 10812 10812 10811 10811 10811 10811 10811 10812 10813 10814 10815 10817 10819 10821 10822 10823 10825 10827 10829 10830 10832 10834 10836 10839 10842 10845 10848 10850 10853 10855 10857 10859 10861 10864 10867 10869 10871 10873 10876 10879 10882 10884 10886 10888 10890 10892 10894 10897 10898 10899
10774 10774 10775 10777 10778 10778 10779 10781 10784 10786 10783 10782 10786 10790 10791 10793 10794 10795 10797 10799 10800 10801 10801 10801 10801 10802 10803 10804 10803 10803 10804 10807 10809 10809 10809 10810 10811 10810 10810 10810 10810 10810 10810 10810 10811 10812 10813 10815 10817 10819 10820 10821 10823 10824 10826 10828 10830 10832 10834 10836 10839 10842 10845 10848 10850 10853 10855 10857 10858 10860 10863 10865 10867 10869 10872 10875 10877 10880 10882 10884 10886 10888 10890 10892 10894 10895
10770 10771 10772 10772 10773 10774 10774 10776 10779 10781 10779 10779 10782 10786 10787 10788 10790 10792 10794 10795 10796 10797 10797 10797 10798 10800 10801 10802 10801 10801 10801 10803 10806 10807 10807 10807 10808 10808 10808 10808 10809 10809 10809 10809 10809 10810 10811 10813 10815 10817 10818 10819 10821 10822 10823 10825 10827 10829 10831 10834 10836 10838 10841 10844 10847 10850 10852 10854 10856 10858 10859 10861 10863 10865 10868 10871 10873 10875 10877 10879 10882 10884 10886 10888 10890 10891
10766 10767 10768 10769 10770 10770 10770 10772 10774 10777 10777 10775 10777 10780 10783 10785 10786 10788 10790 10791 10792 10793 10793 10795 10797 10798 10799 10800 10800 10799 10799 10800 10802 10804 10804 10804 10804 10805 10805 10806 10807 10808 10808 10808 10808 10809 10809 10811 10813 10815 10816 10817 10818 10819 10821 10822 10824 10826 10828 10830 10833 10835 10837 10840 10843 10846 10849 10851 10853 10855 10857 10858 10859 10861 10864 10866 10869 10871 10873 10875 10877 10880 10882 10884 10886 10887
10762 10763 10764 10765 10767 10766 10766 10768 10770 10772 10772 10771 10772 10776 10779 10782 10783 10785 10786 10787 10788 10789 10791 10793 10795 10797 10797 10798 10798 10798 10797 10796 10798 10800 10800 10800 10800 10801 10802 10803 10804 10805 10806 10806 10807 10807 10808 10809 10811 10812 10814 10815 10816 10817 10818 10819 10821 10823 10825 10827 10829 10831 10833 10836 10839 10842 10845 10847 10849 10852 10854 10855 10857 10858 10860 10862 10864 10866 10868 10870 10872 10875 10877 10879 10881 10883
10759 10759 10760 10761 10762 10762 10763 10764 10765 10767 10768 10767 10768 10770 10774 10777 10779 10780 10782 10785 10786 10787 10789 10790 10792 10794 10795 10795 10796 10796 10794 10793 10793 10795 10797 10797 10797 10798 10799 10800 10801 10802 10803 10804 10805 10806 10806 10807 10809 10810 10812 10813 10813 10815 10816 10817 10819 10820 10822 10823 10825 10827 10829 10832 10835 10838 10840 10843 10845 10847 10850 10852 10854 10855 10857 10858 10859 10861 10863 10865 10867 10870 10872 10874 10876 10879
10755 10755 10755 10756 10757 10758 10759 10759 10760 10762 10763 10763 10763 10765 10768 10770 10773 10775 10779 10782 10782 10783 10784 10786 10787 10789 10790 10791 10792 10792 10792 10791 10791 10792 10794 10796 10796 10796 10797 10798 10798 10799 10801 10802 10803 10804 10805 10806 10807 10808 10810 10810 10811 10812 10813 10815 10816 10818 10819 10820 10822 10824 10826 10828 10830 10833 10836 10838 10840 10842 10845 10847 10849 10851 10853 10854 10855 10857 10858 10860 10862 10864 10866 10868 10871 10873
10750 10751 10751 10751 10751 10752 10754 10755 10755 10757 10759 10759 10759 10760 10761 10763 10766 10771 10775 10776 10777 10778 10779 10780 10781 10783 10784 10785 10787 10788 10788 10789 10789 10789 10790 10794 10795 10795 10795 10796 10796 10797 10798 10799 10800 10801 10803 10804 10805 10806 10808 10808 10809 10810 10811 10812 10814 10815 10816 10817 10819 10821 10822 10824 10826 10828 10830 10833 10835 10837 10839 10841 10844 10846 10847 10849 10851 10852 10854 10855 10857 10859 10861 10863 10865 10868
10745 10746 10747 10747 10747 10748 10749 10750 10751 10752 10754 10754 10753 10753 10754 10756 10760 10765 10768 10770 10771 10773 10773 10775 10776 10778 10779 10781 10782 10783 10784 10785 10785 10785 10786 10789 10791 10792 10793 10793 10794 10795 10796 10797 10798 10799 10800 10802 10803 10804 10806 10806 10807 10808 10808 10809 10811 10812 10813 10814 10816 10817 10819 10820 10822 10823 10825 10827 10829 10832 10834 10836 10838 10840 10842 10844 10845 10847 10849 10850 10852 10853 10855 10857 10859 10861
10739 10740 10741 10742 10742 10743 10744 10745 10746 10747 10748 10748 10747 10748 10748 10750 10753 10756 10760 10762 10765 10766 10767 10769 10771 10773 10775 10776 10777 10778 10779 10780 10781 10781 10781 10783 10785 10787 10789 10790 10791 10792 10793 10794 10795 10797 10798 10799 10801 10802 10804 10805 10805 10806 10806 10807 10808 10809 10810 10811 10813 10814 10815 10817 10818 10819 10821 10822 10824 10826 10828 10830 10832 10834 10836 10838 10840 10842 10843 10845 10847 10849 10850 10852 10854 10855
10733 10734 10735 10736 10737 10738 10739 10740 10741 10741 10742 10742 10743 10743 10744 10745 10747 10749 10752 10754 10756 10759 10760 10762 10764 10766 10768 10770 10772 10774 10775 10776 10777 10777 10777 10778 10779 10781 10784 10786 10788 10789 10790 10791 10793 10794 10795 10797 10798 10800 10801 10802 10803 10804 10804 10805 10806 10806 10808 10809 10810 10811 10812 10813 10815 10816 10817 10818 10820 10821 10823 10825 10827 10829 10831 10833 10834 10836 10838 10840 10842 10844 10845 10847 10848 10849
10726 10727 10728 10729 10731 10732 10733 10734 10735 10736 10736 10737 10737 10738 10739 10740 10741 10744 10744 10745 10747 10750 10752 10754 10756 10758 10760 10762 10765 10767 10769 10770 10772 10772 10772 10773 10774 10776 10778 10781 10783 10786 10787 10788 10789 10790 10792 10793 10795 10796 10798 10799 10801 10802 10802 10803 10803 10804 10805 10806 10807 10808 10809 10810 10812 10813 10814 10815 10816 10817 10819 10820 10822 10824 10826 10828 10829 10831 10833 10835 10836 10838 10840 10841 10843 10844
10719 10719 10720 10722 10724 10725 10726 10727 10728 10729 10730 10730 10731 10731 10732 10734 10735 10737 10738 10738 10740 10743 10745 10747 10749 10751 10753 10754 10756 10759 10761 10763 10765 10766 10767 10768 10769 10770 10773 10776 10779 10781 10783 10784 10785 10786 10788 10789 10791 10792 10794 10796 10797 10799 10800 10801 10801 10802 10803 10804 10805 10806 10807 10808 10809 10810 10811 10812 10813 10814 10815 10816 10817 10819 10821 10823 10824 10826 10827 10829 10831 10833 10835 10836 10837 10839
10711 10712 10713 10715 10716 10717 10718 10720 10721 10722 10722 10723 10724 10725 10726 10728 10729 10731 10731 10732 10735 10738 10739 10741 10743 10744 10746 10748 10750 10752 10754 10755 10757 10759 10761 10762 10763 10765 10768 10771 10774 10776 10778 10780 10781 10782 10783 10785 10787 10788 10790 10792 10794 10795 10797 10798 10799 10799 10800 10801 10802 10803 10804 10806 10807 10808 10808 10809 10810 10811 10812 10812 10813 10815 10816 10818 10819 10821 10822 10824 10825 10827 10829 10830 10831 10833
10703 10705 10705 10707 10709 10709 10710 10712 10715 10715 10715 10715 10717 10717 10719 10721 10722 10724 10724 10725 10728 10731 10732 10734 10736 10737 10739 10742 10743 10745 10747 10749 10750 10752 10754 10755 10757 10758 10761 10764 10768 10771 10773 10775 10777 10778 10779 10780 10782 10784 10786 10788 10790 10792 10793 10795 10796 10797 10798 10799 10800 10801 10802 10803 10805 10806 10807 10807 10808 10808 10809 10810 10810 10811 10812 10813 10814 10816 10817 10818 10819 10821 10822 10824 10825 10826
10695 10697 10697 10700 10702 10701 10700 10703 10706 10708 10707 10707 10708 10709 10710 10712 10714 10716 10717 10719 10721 10724 10725 10727 10729 10732 10734 10736 10737 10739 10741 10743 10744 10746 10747 10748 10749 10751 10754 10758 10762 10765 10767 10770 10772 10773 10773 10775 10778 10780 10782 10785 10787 10789 10790 10791 10793 10794 10795 10796 10798 10799 10800 10801 10802 10803 10804 10805 10806 10806 10806 10807 10807 10808 10809 10810 10810 10811 10812 10813 10814 10815 10816 10817 10819 10820
10685 10687 10688 10691 10693 10692 10690 10691 10696 10699 10699 10697 10698 10699 10700 10702 10704 10707 10709 10712 10714 10716 10718 10720 10722 10725 10727 10729 10730 10732 10735 10737 10738 10739 10740 10742 10743 10745 10748 10752 10755 10758 10761 10764 10766 10767 10768 10770 10773 10776 10779 10782 10784 10786 10788 10789 10790 10791 10793 10794 10795 10796 10798 10799 10800 10801 10802 10803 10803 10803 10803 10804 10804 10805 10806 10806 10807 10808 10808 10809 10810 10810 10811 10812 10812 10813